カタログに戻る

STARLINK-5492

運用中通信VLEO
NORAD 55331·PAYLOAD·🇺🇸 United States

打ち上げ Jan 26, 2023 から Cape Canaveral Space Force Station

Loading…

次のパス (今後24時間)

TLE

最新Source: CelesTrak SupGP

元期: Sep 15, 2026, 02:23 UTC

1 55331C 23013A   26258.09979167  .00027709  00000+0  10038-2 0  2583
2 55331  43.0012 313.8120 0001162 264.3727 333.7608 15.27559383    17

AllMySatでSTARLINK-5492をリアルタイム追跡

Download on the App Store